Flag for Chile Weather past 2 weeks in Easter Island, Chile

Now
64 °F

Partly sunny.


Feels Like: 64 °F
Forecast: 61 / 68 °F
Wind: 8 mph from Northeast

Location: Isla De Pascua

Current Time: Oct 1, 2014 at 10:19:38 AM

Latest Report: Oct 1, 2014 at 10:00 AM


Visibility: N/A

Pressure: 30.27 "Hg

Humidity: 60%

Dew point: 50 °F

Location of Easter IslandLocation

Historic Weather in Easter Island — Graph

°F

Easter Island temperature yesterday

Maximum temperature yesterday: 68 °F (at 2:00 PM)
Minimum temperature yesterday: 61 °F (at 1:00 AM)
Average temperature yesterday: 63 °F

Past Weeks' High & Low Weather Summary

 TemperatureHumidityPressure
High72 °F (Sep 16, 1:00 PM)94% (Sep 19, 9:00 AM)30.51 "Hg (Sep 19, 9:00 AM)
Low59 °F (Sep 27, 8:00 AM)49% (Sep 21, 12:00 PM)30.12 "Hg (Sep 17, 2:00 PM)
Average66 °F69%30.31 "Hg
* Reported Sep 16 9:00 AM — Oct 1 9:00 AM, Easter Island, Weather by CustomWeather, © 2014

Note: Actual official high and low records may vary slightly from our data, if they occured in-between our weather recording intervals... More about our weather records

Advertising

Easter Island weather history for previous 24 hours

 ConditionsComfort  
Time TempWeatherWind HumidityBarometerVisibility
9:00 AM
Oct 1
63 °FPassing clouds.7 mph59%30.24 "HgN/A
8:00 AM63 °FPassing clouds.8 mph64%30.24 "HgN/A
7:00 AM63 °FPartly cloudy.8 mph64%30.24 "HgN/A
6:00 AM63 °FPartly cloudy.6 mph59%30.21 "HgN/A
5:00 AM61 °FPartly cloudy.6 mph63%30.24 "HgN/A
4:00 AM63 °FPartly cloudy.9 mph59%30.24 "HgN/A
3:00 AM63 °FPartly cloudy.9 mph59%30.27 "HgN/A
2:00 AM63 °FPartly cloudy.8 mph64%30.27 "HgN/A
1:00 AM63 °FPartly cloudy.8 mph59%30.30 "HgN/A
12:00 AM63 °FPartly cloudy.12 mph59%30.30 "HgN/A
11:00 PM
Sep 30
63 °FPartly cloudy.7 mph59%30.30 "HgN/A
10:00 PM63 °FBroken clouds.10 mph59%30.30 "HgN/A
9:00 PM63 °FPartly sunny.13 mph59%30.27 "HgN/A
8:00 PM63 °FPartly sunny.13 mph59%30.27 "HgN/A
7:00 PM64 °FPartly sunny.14 mph56%30.27 "HgN/A
6:00 PM66 °FBroken clouds.14 mph52%30.24 "HgN/A
5:00 PM66 °FPartly sunny.14 mph52%30.24 "HgN/A
4:00 PM66 °FPartly sunny.15 mph56%30.27 "HgN/A
3:00 PM66 °FScattered clouds.16 mph52%30.27 "HgN/A
2:00 PM68 °FPartly sunny.17 mph49%30.30 "HgN/A
1:00 PM66 °FPartly sunny.15 mph56%30.33 "HgN/A
12:00 PM64 °FPartly sunny.15 mph60%30.33 "HgN/A
11:00 AM64 °FPartly sunny.14 mph56%30.33 "HgN/A
10:00 AM63 °FPartly sunny.14 mph56%30.30 "HgN/A
Weather by CustomWeather, © 2014

See weather overviewHow to use our weather pages